Tracking 29493 objects as of 8-Sep-2024
HD Live streaming from Space Station
objects crossing your sky now

FENGYUN 1C DEB

Track FENGYUN 1C DEB now!
10-day predictions


NORAD ID: 32209
Int'l Code: 1999-025CVF
Perigee: 845.4 km
Apogee: 1,353.4 km
Inclination: 99.4 °
Period: 107.1 minutes
Semi major axis: 7470 km
RCS: 0.0093 m2 (small)
Launch date: May 10, 1999
Source: People's Republic of China (PRC)
Launch site: Taiyaun Space Center, China (TSC)

Note: This is SATELLITE DEBRIS
Your satellite tracking list
Your tracking list is empty




NASA's NSSDC Master Catalog

Two Line Element Set (TLE):
1 32209U 99025CVF 24252.18132113  .00005551  00000-0  67542-2 0  9998
2 32209  99.3876 221.1447 0340038  94.0250 269.9818 13.44587631837798
Source of the keplerian elements: AFSPC